Hourly Data Report for October 15, 2020

OTTAWA INTL A
ONTARIO
Current Station Operator: NAVCAN

45°19'00.000" N
75°40'00.000" W
114.90 m
6106001
71628
YOW

Download Data

Hourly Data (October 2020)
Hourly Data Report for October 15, 2020
TIME Temp Definition
°C
Dew Point Definition
°C
Rel Hum Definition
%
Wind Dir Definition
10's deg

Wind Spd Definition
km/h
Visibility Definition
km
Stn Press Definition
kPa
Hmdx Definition


Wind Chill Definition


Weather Definition


00:00 8.3 6.3 87 12 13 24.1 99.74     LegendNANA
01:00 8.4 5.6 82 13 16 24.1 99.66     Mostly Cloudy
02:00 8.4 4.3 75 11 18 24.1 99.53     LegendNANA
03:00 8.2 3.7 73 12 19 24.1 99.37     LegendNANA
04:00 8.0 3.2 71 11 13 24.1 99.27     Mostly Cloudy
05:00 8.4 3.6 72 11 14 24.1 99.18     LegendNANA
06:00 8.8 4.0 71 12 11 24.1 99.10     LegendNANA
07:00 10.1 4.3 67 16 13 24.1 99.05     Cloudy
08:00 12.7 5.5 61 16 13 24.1 99.01     LegendNANA
09:00 15.3 6.2 54 18 16 24.1 99.00     LegendNANA
10:00 17.0 7.3 52 17 14 24.1 99.01     Mostly Cloudy
11:00 18.9 8.8 51 23 27 24.1 99.02     LegendNANA
12:00 18.5 9.4 55 25 21 24.1 99.04     LegendNANA
13:00 14.6 11.4 81 24 27 16.1 99.19     Rain
14:00 13.8 11.5 86 24 24 16.1 99.32     Rain
15:00 12.6 11.0 90 24 26 12.9 99.38     Rain
16:00 11.2 9.7 91 22 17 16.1 99.45     Rain
17:00 10.7 9.9 94 19 14 16.1 99.55     Rain
18:00 10.7 9.9 95 19 21 16.1 99.58     Rain
19:00 10.5 9.6 94 20 16 16.1 99.69     Rain
20:00 10.3 9.4 95 20 14 16.1 99.79     Rain
21:00 10.0 9.2 95 20 14 16.1 99.86     Rain
22:00 9.8 9.2 95 20 13 16.1 99.88     Rain
23:00 9.8 9.2 96 19 14 16.1 99.95     Rain

Notes on Data Quality.

Legend

  • E = Estimated
  • M = Missing
  • NA = Not Available*
  • [empty] = Indicates an unobserved value
Date modified: